Time,TemperatureF,DewpointF,PressureIn,WindDirection,WindDirectionDegrees,WindSpeedMPH,WindSpeedGustMPH,Humidity,HourlyPrecipIn,Conditions,Clouds,dailyrainin,SolarRadiationWatts/m^2,SoftwareType,DateUTC
2013-08-27 00:01:00,55.0,47.0,-100.00,North,4,1.0,3.0,75,0.00,,,0.01,0.000000,,2013-08-27 07:01:00,
2013-08-27 00:42:00,55.0,48.0,-100.00,East,83,1.0,2.0,77,0.00,,,0.01,0.000000,,2013-08-27 07:42:00,
2013-08-27 00:52:00,55.0,48.0,-100.00,East,83,1.0,2.0,77,0.00,,,0.01,0.000000,,2013-08-27 07:52:00,
2013-08-27 01:01:00,55.0,48.0,-100.00,East,83,1.0,2.0,77,0.00,,,0.01,0.000000,,2013-08-27 08:01:00,
2013-08-27 01:42:00,55.0,48.0,-100.00,NE,38,1.0,3.0,78,0.00,,,0.01,0.000000,,2013-08-27 08:42:00,
2013-08-27 01:52:00,55.0,48.0,-100.00,NE,38,1.0,3.0,78,0.00,,,0.01,0.000000,,2013-08-27 08:52:00,
2013-08-27 02:01:00,55.0,48.0,-100.00,NE,38,1.0,3.0,78,0.00,,,0.01,0.000000,,2013-08-27 09:01:00,
2013-08-27 02:43:00,55.0,49.0,-100.00,South,171,1.0,2.0,80,0.00,,,0.01,0.000000,,2013-08-27 09:43:00,
2013-08-27 02:54:00,55.0,49.0,-100.00,South,171,1.0,2.0,80,0.00,,,0.01,0.000000,,2013-08-27 09:54:00,
2013-08-27 03:05:00,55.0,49.0,-100.00,South,171,1.0,2.0,80,0.00,,,0.01,0.000000,,2013-08-27 10:05:00,
2013-08-27 03:43:00,55.0,49.0,-100.00,NNE,13,1.0,2.0,81,0.00,,,0.01,0.000000,,2013-08-27 10:43:00,
2013-08-27 03:53:00,55.0,49.0,-100.00,NNE,13,1.0,2.0,81,0.00,,,0.01,0.000000,,2013-08-27 10:53:00,
2013-08-27 04:03:00,55.0,49.0,-100.00,NNE,13,1.0,2.0,81,0.00,,,0.01,0.000000,,2013-08-27 11:03:00,
2013-08-27 04:42:00,55.0,50.0,-100.00,ENE,74,1.0,2.0,84,0.00,,,0.01,0.000000,,2013-08-27 11:42:00,
2013-08-27 04:52:00,55.0,50.0,-100.00,ENE,74,1.0,2.0,84,0.00,,,0.01,0.000000,,2013-08-27 11:52:00,
2013-08-27 05:02:00,55.0,50.0,-100.00,ENE,74,1.0,2.0,84,0.00,,,0.01,0.000000,,2013-08-27 12:02:00,
2013-08-27 05:42:00,54.0,49.0,-100.00,WSW,252,1.0,3.0,84,0.00,,,0.01,0.000000,,2013-08-27 12:42:00,
2013-08-27 05:52:00,54.0,49.0,-100.00,WSW,252,1.0,3.0,84,0.00,,,0.01,0.000000,,2013-08-27 12:52:00,
2013-08-27 06:01:00,54.0,49.0,-100.00,WSW,252,1.0,3.0,84,0.00,,,0.01,0.000000,,2013-08-27 13:01:00,
2013-08-27 06:42:00,55.0,51.0,-100.00,NNE,15,1.0,4.0,87,0.00,,,0.01,0.000000,,2013-08-27 13:42:00,
2013-08-27 06:52:00,55.0,51.0,-100.00,NNE,15,1.0,4.0,87,0.00,,,0.01,0.000000,,2013-08-27 13:52:00,
2013-08-27 07:02:00,55.0,51.0,-100.00,NNE,15,1.0,4.0,87,0.00,,,0.01,0.000000,,2013-08-27 14:02:00,
2013-08-27 07:42:00,55.0,51.0,-100.00,NNE,25,1.0,3.0,86,0.00,,,0.01,8.000000,,2013-08-27 14:42:00,
2013-08-27 07:53:00,55.0,51.0,-100.00,NNE,25,1.0,3.0,86,0.00,,,0.01,8.000000,,2013-08-27 14:53:00,
2013-08-27 08:01:00,55.0,51.0,-100.00,NNE,25,1.0,3.0,86,0.00,,,0.01,8.000000,,2013-08-27 15:01:00,
2013-08-27 08:09:00,60.0,53.0,-100.00,SSW,206,1.0,5.0,77,0.00,,,0.01,102.000000,,2013-08-27 15:09:00,
2013-08-27 08:45:00,60.0,53.0,-100.00,SSW,206,1.0,5.0,77,0.00,,,0.01,102.000000,,2013-08-27 15:45:00,
2013-08-27 08:58:00,60.0,53.0,-100.00,SSW,206,1.0,5.0,77,0.00,,,0.01,102.000000,,2013-08-27 15:58:00,
2013-08-27 09:55:00,66.0,53.0,-100.00,NW,311,2.0,4.0,64,0.00,,,-99.99,210.000000,,2013-08-27 16:55:00,
2013-08-27 10:04:00,66.0,53.0,-100.00,NW,311,2.0,4.0,64,0.00,,,-99.99,210.000000,,2013-08-27 17:04:00,